Eilat, Israel

6:31 PM IDT on September 22, 2017 (GMT +0300)
Eilat

Weather History for LLET - August, 2013

Change the Weather History Date:

Saturday, August 24, 2013

  Actual Average Record
Temperature  
Mean Temperature 89 °F -  
Max Temperature 101 °F 98 °F 111 °F (2007)
Min Temperature 77 °F 77 °F 77 °F (2001)
Cooling Degree Days 24    
Growing Degree Days 39 (Base 50)    
Moisture  
Dew Point 55 °F    
Average Humidity 29    
Maximum Humidity 54    
Minimum Humidity 11    
Precipitation  
Precipitation 0.00 in -13.12 in - ()
Sea Level Pressure  
Sea Level Pressure 29.81 in    
Wind  
Wind Speed 7 mph ()    
Max Wind Speed 15 mph    
Max Gust Speed -    
Visibility 16.0 miles    
Events      
Averages and records for this station are not official NWS values.
T = Trace of Precipitation, MM = Missing Value Source: Averaged Metar Reports

Daily Weather History Graph

Daily Weather History Graph

Search for Another Location

Airport or City:

Trip Planner

Search our weather history database for the weather conditions in past years. The results will help you decide how hot, cold, wet, or windy it might be!

Date:

Astronomy

Aug. 24, 2013 Rise Set
Actual Time 6:13 AM IDT 7:11 PM IDT
Civil Twilight 5:48 AM IDT 7:35 PM IDT
Nautical Twilight 5:19 AM IDT 8:04 PM IDT
Astronomical Twilight 4:49 AM IDT 8:34 PM IDT
Moon 9:16 PM IDT (8/24) 9:29 AM IDT (8/24)
Length of Visible Light 13h 47m
Length of Day
12h 58m
Waning Gibbous, 86% of the Moon is Illuminated
Aug 24
Waning Gibbous
Aug 28
Last Quarter
Sep 5
New
Sep 12
First Quarter
Sep 19
Full

Hourly Weather History & Observations

Time (IDT) Temp. Heat Index Dew Point Humidity Pressure Visibility Wind Dir Wind Speed Gust Speed Precip Events Conditions
3:00 AM 84 °F - 54 °F 25% 29.84 in - ENE 2.3 mph - -  
6:30 AM 77.0 °F - 57.2 °F 50% 29.86 in - Variable 3.5 mph - N/A   Clear
6:50 AM 77.0 °F - 59.0 °F 54% 29.86 in - Variable 2.3 mph - N/A   Clear
7:50 AM 82.4 °F 82.0 °F 57.2 °F 42% 29.89 in - ENE 5.8 mph - N/A   Clear
8:50 AM 86.0 °F 86.6 °F 62.6 °F 45% 29.89 in - NE 8.1 mph - N/A   Clear
9:50 AM 87.8 °F 87.6 °F 60.8 °F 40% 29.89 in - ENE 8.1 mph - N/A   Clear
10:50 AM 89.6 °F 89.5 °F 60.8 °F 38% 29.86 in - NE 10.4 mph - N/A   Clear
11:50 AM 91.4 °F 90.7 °F 59.0 °F 34% 29.83 in - ENE 13.8 mph - N/A   Clear
12:50 PM 95.0 °F 93.0 °F 55.4 °F 26% 29.83 in - NE 11.5 mph - N/A   Clear
1:50 PM 96.8 °F 94.4 °F 53.6 °F 23% 29.80 in - ENE 11.5 mph - N/A   Clear
2:50 PM 98.6 °F - 51.8 °F 21% 29.77 in - ENE 13.8 mph - N/A   Clear
3:00 PM 100 °F - 51 °F 11% 29.76 in 16 mi ENE 6.9 mph - -  
3:50 PM 98.6 °F - 48.2 °F 18% 29.77 in - NE 10.4 mph - N/A   Clear
4:50 PM 100.4 °F - 44.6 °F 15% 29.74 in - NE 15.0 mph - N/A   Clear
5:50 PM 100.4 °F - 48.2 °F 17% 29.74 in - North 12.7 mph - N/A   Clear
6:50 PM 98.6 °F - 48.2 °F 18% 29.74 in - NNW 12.7 mph - N/A   Clear
7:50 PM 95.0 °F - 51.8 °F 23% 29.77 in - North 10.4 mph - N/A   Clear
8:50 PM 93.2 °F 90.8 °F 53.6 °F 26% 29.77 in - NNW 11.5 mph - N/A   Clear
9:00 PM 92 °F - 54 °F 18% 29.78 in - NNW 5.8 mph - -  
9:50 PM 91.4 °F 89.9 °F 57.2 °F 31% 29.80 in - North 12.7 mph - N/A   Clear
10:50 PM 89.6 °F 88.1 °F 57.2 °F 33% 29.80 in - North 10.4 mph - N/A   Clear